Weather History for St. George, UT

Change the Weather History Date:

Wednesday, February 20, 2013

  Actual Average Record
Temperature  
Mean Temperature 39 °F -  
Max Temperature 46 °F 62 °F 76 °F (1972)
Min Temperature 32 °F 35 °F 18 °F (1942)
Degree Days  
Heating Degree Days 26    
Moisture  
Dew Point 32 °F    
Average Humidity 72    
Maximum Humidity 93    
Minimum Humidity 50    
Precipitation  
Precipitation 0.22 in - - ()
Sea Level Pressure  
Sea Level Pressure 29.68 in    
Wind  
Wind Speed 6 mph (SW)    
Max Wind Speed 18 mph    
Max Gust Speed 22 mph    
Visibility 10 miles    
Events      
Averages and records for this station are not official NWS values.
T = Trace of Precipitation, MM = Missing Value Source: NWS Daily Summary

Daily Weather History Graph

Daily Weather History Graph

Search for Another Location

Airport:

Trip Planner

Search our weather history database for the weather conditions in past years. The results will help you decide how hot, cold, wet, or windy it might be!

Date:

Astronomy

Feb. 20, 2013 Rise Set
Actual Time 7:16 AM MST 6:19 PM MST
Civil Twilight 6:50 AM MST 6:46 PM MST
Nautical Twilight 6:20 AM MST 7:16 PM MST
Astronomical Twilight 5:49 AM MST 7:46 PM MST
Moon 1:48 PM MST (2/20) 3:35 AM MST (2/20)
Length of Visible Light 11h 55m
Length of Day
11h 03m
Waxing Gibbous, 76% of the Moon is Illuminated
Feb 20
Waxing Gibbous
Feb 25
Full
Mar 4
Last Quarter
Mar 11
New
Mar 19
First Quarter

Hourly Weather History & Observations

Time (MST) Temp. Windchill Dew Point Humidity Pressure Visibility Wind Dir Wind Speed Gust Speed Precip Events Conditions
12:15 AM 46.4 °F 43.5 °F 28.4 °F 50% 29.59 in 10.0 mi SW 5.8 mph - N/A   Overcast
12:35 AM 46.4 °F 45.2 °F 28.4 °F 50% 29.59 in 10.0 mi SSE 3.5 mph - N/A   Overcast
12:55 AM 46.4 °F - 28.4 °F 50% 29.58 in 10.0 mi Calm Calm - N/A   Overcast
1:15 AM 46.4 °F 44.3 °F 28.4 °F 50% 29.58 in 10.0 mi South 4.6 mph - N/A   Overcast
1:35 AM 46.4 °F 45.2 °F 28.4 °F 50% 29.58 in 10.0 mi NNE 3.5 mph - N/A   Overcast
1:55 AM 46.4 °F 45.2 °F 28.4 °F 50% 29.57 in 10.0 mi NE 3.5 mph - N/A   Overcast
2:15 AM 44.6 °F - 28.4 °F 53% 29.57 in 10.0 mi Calm Calm - N/A   Overcast
2:35 AM 46.4 °F 39.2 °F 28.4 °F 50% 29.58 in 10.0 mi WSW 18.4 mph 21.9 mph N/A   Overcast
2:55 AM 42.8 °F 35.4 °F 32.0 °F 66% 29.58 in 10.0 mi West 15.0 mph - N/A   Overcast
3:15 AM 42.8 °F 36.2 °F 32.0 °F 66% 29.59 in 10.0 mi West 12.7 mph - N/A   Overcast
3:35 AM 41.0 °F 32.8 °F 33.8 °F 76% 29.58 in 10.0 mi West 16.1 mph - N/A   Overcast
3:55 AM 39.2 °F 31.6 °F 33.8 °F 81% 29.58 in 10.0 mi West 12.7 mph - N/A   Overcast
4:15 AM 39.2 °F 31.6 °F 33.8 °F 81% 29.59 in 10.0 mi West 12.7 mph - N/A   Overcast
4:35 AM 37.4 °F 30.3 °F 32.0 °F 81% 29.59 in 10.0 mi WSW 10.4 mph - N/A   Overcast
4:55 AM 37.4 °F 30.3 °F 32.0 °F 81% 29.59 in 10.0 mi WSW 10.4 mph - 0.02 in   Overcast
5:15 AM 35.6 °F 28.6 °F 30.2 °F 81% 29.60 in 9.0 mi West 9.2 mph - 0.04 in   Overcast
5:55 AM 35.6 °F - 30.2 °F 81% 29.61 in 5.0 mi Calm Calm - 0.12 in   Overcast
6:15 AM 35.6 °F 32.8 °F 30.2 °F 81% 29.61 in 10.0 mi SE 3.5 mph - 0.03 in   Overcast
6:35 AM 33.8 °F - 30.2 °F 87% 29.61 in 7.0 mi Calm Calm - 0.03 in   Overcast
7:15 AM 33.8 °F 28.6 °F 30.2 °F 87% 29.63 in 4.0 mi SSE 5.8 mph - 0.01 in   Overcast
7:35 AM 32.0 °F 27.5 °F 28.4 °F 87% 29.63 in 4.0 mi SE 4.6 mph - 0.04 in   Overcast
8:35 AM 33.8 °F 30.8 °F 30.2 °F 87% 29.65 in 5.0 mi SE 3.5 mph - N/A   Overcast
8:55 AM 33.8 °F 29.6 °F 30.2 °F 87% 29.66 in 8.0 mi SE 4.6 mph - N/A   Overcast
9:35 AM 33.8 °F 30.8 °F 30.2 °F 87% 29.68 in 10.0 mi SE 3.5 mph - N/A   Overcast
9:55 AM 35.6 °F 32.8 °F 32.0 °F 87% 29.69 in 10.0 mi ESE 3.5 mph - 0.01 in   Overcast
10:15 AM 35.6 °F - 33.8 °F 93% 29.70 in 10.0 mi Calm Calm - N/A   Overcast
10:35 AM 35.6 °F 32.8 °F 32.0 °F 87% 29.70 in 10.0 mi SSE 3.5 mph - N/A   Overcast
10:55 AM 37.4 °F - 32.0 °F 81% 29.71 in 10.0 mi Calm Calm - N/A   Overcast
11:15 AM 37.4 °F - 33.8 °F 87% 29.71 in 10.0 mi Calm Calm - N/A   Overcast
11:35 AM 37.4 °F - 33.8 °F 87% 29.72 in 10.0 mi Calm Calm - N/A   Overcast
11:55 AM 39.2 °F - 33.8 °F 81% 29.72 in 10.0 mi Calm Calm - N/A   Overcast
12:15 PM 39.2 °F - 33.8 °F 81% 29.72 in 10.0 mi Calm Calm - N/A   Mostly Cloudy
12:35 PM 39.2 °F - 33.8 °F 81% 29.72 in 10.0 mi Calm Calm - N/A   Mostly Cloudy
12:55 PM 41.0 °F - 33.8 °F 76% 29.71 in 10.0 mi Calm Calm - N/A   Mostly Cloudy
1:15 PM 41.0 °F - 33.8 °F 76% 29.70 in 10.0 mi Calm Calm - N/A   Mostly Cloudy
1:35 PM 42.8 °F - 33.8 °F 70% 29.70 in 10.0 mi Calm Calm - N/A   Mostly Cloudy
1:55 PM 41.0 °F - 33.8 °F 76% 29.69 in 10.0 mi Calm Calm - N/A   Mostly Cloudy
2:15 PM 41.0 °F 39.0 °F 33.8 °F 76% 29.68 in 10.0 mi NW 3.5 mph - N/A   Mostly Cloudy
2:35 PM 42.8 °F 41.1 °F 33.8 °F 70% 29.68 in 10.0 mi West 3.5 mph - N/A   Partly Cloudy
2:55 PM 44.6 °F - 33.8 °F 66% 29.68 in 10.0 mi Calm Calm - N/A   Clear
3:15 PM 44.6 °F - 33.8 °F 66% 29.68 in 10.0 mi Calm Calm - N/A   Scattered Clouds
3:35 PM 44.6 °F 42.2 °F 33.8 °F 66% 29.68 in 10.0 mi SSW 4.6 mph - N/A   Scattered Clouds
3:55 PM 44.6 °F 40.2 °F 35.6 °F 71% 29.68 in 10.0 mi SSW 8.1 mph - N/A   Mostly Cloudy
4:15 PM 46.4 °F 42.4 °F 35.6 °F 66% 29.68 in 10.0 mi SSE 8.1 mph - N/A   Overcast
4:35 PM 46.4 °F 41.9 °F 33.8 °F 62% 29.69 in 10.0 mi SSW 9.2 mph - N/A   Mostly Cloudy
4:55 PM 44.6 °F 40.2 °F 33.8 °F 66% 29.70 in 10.0 mi South 8.1 mph - N/A   Partly Cloudy
5:15 PM 46.4 °F 41.9 °F 33.8 °F 62% 29.70 in 10.0 mi SW 9.2 mph - N/A   Mostly Cloudy
5:35 PM 46.4 °F 41.1 °F 33.8 °F 62% 29.71 in 10.0 mi WSW 11.5 mph - N/A   Mostly Cloudy
5:55 PM 44.6 °F 38.8 °F 33.8 °F 66% 29.71 in 10.0 mi WSW 11.5 mph - N/A   Overcast
6:15 PM 44.6 °F 38.8 °F 33.8 °F 66% 29.72 in 10.0 mi WSW 11.5 mph - N/A   Overcast
6:35 PM 44.6 °F 39.7 °F 33.8 °F 66% 29.73 in 10.0 mi WSW 9.2 mph - N/A   Overcast
6:55 PM 44.6 °F 39.7 °F 33.8 °F 66% 29.74 in 10.0 mi SW 9.2 mph - N/A   Overcast
7:15 PM 44.6 °F 38.8 °F 33.8 °F 66% 29.74 in 10.0 mi SW 11.5 mph - N/A   Overcast
7:55 PM 42.8 °F 37.5 °F 33.8 °F 70% 29.76 in 10.0 mi WSW 9.2 mph - N/A   Mostly Cloudy
8:15 PM 44.6 °F 40.2 °F 32.0 °F 61% 29.76 in 10.0 mi WSW 8.1 mph - N/A   Mostly Cloudy
8:35 PM 42.8 °F 38.0 °F 32.0 °F 66% 29.77 in 10.0 mi West 8.1 mph - N/A   Mostly Cloudy
8:55 PM 42.8 °F 36.6 °F 32.0 °F 66% 29.78 in 10.0 mi WSW 11.5 mph - N/A   Scattered Clouds
9:35 PM 41.0 °F 33.9 °F 33.8 °F 76% 29.80 in 10.0 mi SSW 12.7 mph - N/A   Mostly Cloudy
9:55 PM 41.0 °F 33.9 °F 33.8 °F 76% 29.80 in 10.0 mi WSW 12.7 mph - N/A   Mostly Cloudy
10:15 PM 41.0 °F 34.3 °F 33.8 °F 76% 29.81 in 10.0 mi WSW 11.5 mph - N/A   Partly Cloudy
10:35 PM 41.0 °F 36.4 °F 33.8 °F 76% 29.82 in 10.0 mi WSW 6.9 mph - N/A   Mostly Cloudy
10:55 PM 41.0 °F 35.2 °F 33.8 °F 76% 29.82 in 10.0 mi WSW 9.2 mph - N/A   Overcast
11:15 PM 41.0 °F 35.8 °F 33.8 °F 76% 29.83 in 10.0 mi WSW 8.1 mph - N/A   Mostly Cloudy
11:35 PM 39.2 °F 33.6 °F 33.8 °F 81% 29.83 in 10.0 mi SW 8.1 mph - N/A   Mostly Cloudy
11:55 PM 39.2 °F 33.6 °F 33.8 °F 81% 29.84 in 10.0 mi SW 8.1 mph - N/A   Mostly Cloudy